Location: Natural Bridges National Monument
(37.6093°N, 109.9767°W)
Time: 16:42:50
(UTC-06:00)

USA 32 - Visible Passes

Search period start: 24 April 2018 00:00
Search period end: 04 May 2018 00:00
Orbit: 778 x 782 km, 85.0° (Epoch: 22 April)

Date Brightness Start Highest point End Pass type
(mag) Time Alt. Az. Time Alt. Az. Time Alt. Az.
24 Apr 6.3 01:26:25 10° N 01:28:10 21° N 01:28:10 21° N visible
25 Apr 6.3 00:53:51 10° NNE 00:55:31 19° NNE 00:55:31 19° NNE visible
25 Apr 6.6 02:35:34 10° NW 02:36:02 12° NW 02:36:02 12° NW visible
26 Apr 6.5 00:21:42 10° NNE 00:22:52 15° NE 00:22:52 15° NE visible
26 Apr 6.3 02:01:59 10° NNW 02:03:24 18° NNW 02:03:24 18° NNW visible
27 Apr 6.1 01:28:52 10° N 01:30:46 23° NNW 01:30:46 23° NNW visible
28 Apr 6.1 00:56:03 10° N 00:58:08 24° N 00:58:08 24° N visible
29 Apr 6.1 00:23:33 10° NNE 00:25:30 21° NNE 00:25:30 21° NNE visible
29 Apr 6.5 02:04:57 10° NNW 02:06:02 15° NW 02:06:02 15° NW visible
29 Apr 6.3 23:51:31 10° NNE 23:52:53 15° NE 23:52:53 15° NE visible
30 Apr 6.1 01:31:30 10° NNW 01:33:25 21° NNW 01:33:25 21° NNW visible
01 May 5.9 00:58:27 10° N 01:00:48 27° N 01:00:48 27° N visible
02 May 5.8 00:25:41 10° N 00:28:12 28° NNE 00:28:12 28° NNE visible
02 May 6.7 02:08:28 10° NW 02:08:43 11° NW 02:08:43 11° NW visible
02 May 5.9 23:53:16 10° NNE 23:55:36 22° NE 23:55:36 22° NE visible
03 May 6.3 01:34:23 10° NNW 01:36:08 18° NW 01:36:08 18° NW visible
03 May 6.2 23:21:23 10° NNE 23:23:01 15° NE 23:23:01 15° NE visible
